When you browse on this site, cookies collect data to enhance your experience and personalize the content and advertising you see.
Visit our Privacy Policy to learn more. By continuing to use the site, you agree to this use of cookies and data.
  • In Österreich
  • Länderverzeichnis
  • Für 7 Tage
  • Wassertemperatur
  • Satellitenkarten
  • Wetterkarte
  • News
  • Widgets
  • user-avatar
    Anmelden

    Stündliche Wetter Rawson

    Heute, 21 März, Donnerstag

    Zeit Temperatur Niederschläge Wind Luftdruck Luftfeuchtigkeit
    00:00 +17°C° 0 mm 8 m/S 762 mmHg 42%
    01:00 +17°C° 0 mm 8 m/S 762 mmHg 38%
    02:00 +17°C° 0 mm 8 m/S 761 mmHg 34%
    03:00 +16°C° 0 mm 8 m/S 761 mmHg 35%
    04:00 +16°C° 0 mm 8 m/S 760 mmHg 36%
    05:00 +16°C° 0 mm 9 m/S 760 mmHg 37%
    06:00 +16°C° 0 mm 9 m/S 760 mmHg 38%
    07:00 +16°C° 0 mm 9 m/S 760 mmHg 38%
    08:00 +16°C° 0 mm 9 m/S 760 mmHg 38%
    09:00 +18°C° 0 mm 9 m/S 760 mmHg 36%
    10:00 +19°C° 0 mm 10 m/S 759 mmHg 33%
    11:00 +21°C° 0 mm 10 m/S 759 mmHg 30%
    12:00 +22°C° 0 mm 10 m/S 759 mmHg 30%
    13:00 +22°C° 0 mm 10 m/S 759 mmHg 29%
    14:00 +22°C° 0 mm 10 m/S 758 mmHg 29%
    15:00 +23°C° 0 mm 10 m/S 758 mmHg 29%
    16:00 +23°C° 0 mm 10 m/S 757 mmHg 29%
    17:00 +23°C° 0 mm 10 m/S 757 mmHg 29%
    18:00 +22°C° 0 mm 10 m/S 757 mmHg 32%
    19:00 +21°C° 0 mm 9 m/S 757 mmHg 36%
    20:00 +19°C° 0 mm 9 m/S 757 mmHg 39%
    21:00 +19°C° 0 mm 9 m/S 757 mmHg 41%
    22:00 +18°C° 0 mm 9 m/S 757 mmHg 42%
    23:00 +18°C° 0 mm 9 m/S 758 mmHg 44%

    Morgen, 22 März, Freitag

    Zeit Temperatur Niederschläge Wind Luftdruck Luftfeuchtigkeit
    00:00 +18°C° 0 mm 8 m/S 758 mmHg 44%
    01:00 +18°C° 0 mm 7 m/S 758 mmHg 44%
    02:00 +17°C° 0 mm 6 m/S 758 mmHg 43%
    03:00 +17°C° 0 mm 6 m/S 758 mmHg 46%
    04:00 +17°C° 0 mm 5 m/S 758 mmHg 50%
    05:00 +16°C° 0 mm 5 m/S 758 mmHg 53%
    06:00 +17°C° 0 mm 5 m/S 758 mmHg 53%
    07:00 +17°C° 0 mm 6 m/S 758 mmHg 53%
    08:00 +17°C° 0 mm 6 m/S 758 mmHg 54%
    09:00 +20°C° 0 mm 6 m/S 758 mmHg 49%
    10:00 +21°C° 0 mm 6 m/S 758 mmHg 43%
    11:00 +23°C° 0 mm 6 m/S 758 mmHg 38%
    12:00 +23°C° 0 mm 6 m/S 758 mmHg 37%
    13:00 +24°C° 0 mm 6 m/S 757 mmHg 35%
    14:00 +26°C° 0 mm 6 m/S 757 mmHg 33%
    15:00 +26°C° 0 mm 6 m/S 756 mmHg 33%
    16:00 +26°C° 0 mm 5 m/S 756 mmHg 33%
    17:00 +26°C° 0 mm 5 m/S 755 mmHg 33%
    18:00 +25°C° 0 mm 5 m/S 755 mmHg 36%
    19:00 +23°C° 0 mm 4 m/S 755 mmHg 39%
    20:00 +22°C° 0 mm 4 m/S 754 mmHg 42%
    21:00 +22°C° 0 mm 4 m/S 754 mmHg 44%
    22:00 +21°C° 0 mm 5 m/S 754 mmHg 46%
    23:00 +20°C° 0 mm 5 m/S 754 mmHg 49%

    übermorgen, 23 März, Samstag

    Zeit Temperatur Niederschläge Wind Luftdruck Luftfeuchtigkeit
    00:00 +20°C° 0 mm 5 m/S 753 mmHg 49%
    01:00 +20°C° 0 mm 5 m/S 753 mmHg 50%
    02:00 +20°C° 0 mm 5 m/S 753 mmHg 51%
    03:00 +20°C° 0.2 mm 5 m/S 753 mmHg 57%
    04:00 +19°C° 0.2 mm 5 m/S 753 mmHg 64%
    05:00 +18°C° 0.2 mm 4 m/S 753 mmHg 71%
    06:00 +19°C° 1.1 mm 6 m/S 753 mmHg 64%
    07:00 +18°C° 1.1 mm 7 m/S 754 mmHg 57%
    08:00 +18°C° 1.1 mm 9 m/S 754 mmHg 50%
    09:00 +18°C° 0 mm 9 m/S 754 mmHg 46%
    10:00 +19°C° 0 mm 9 m/S 755 mmHg 42%
    11:00 +19°C° 0 mm 9 m/S 755 mmHg 38%
    12:00 +19°C° 0 mm 9 m/S 755 mmHg 38%
    13:00 +21°C° 0 mm 9 m/S 755 mmHg 38%
    14:00 +21°C° 0 mm 9 m/S 755 mmHg 38%
    15:00 +21°C° 0 mm 9 m/S 755 mmHg 41%
    16:00 +19°C° 0 mm 9 m/S 755 mmHg 44%
    17:00 +19°C° 0 mm 9 m/S 756 mmHg 47%
    18:00 +18°C° 0 mm 10 m/S 757 mmHg 56%
    19:00 +17°C° 0 mm 11 m/S 758 mmHg 65%
    20:00 +14°C° 0 mm 12 m/S 759 mmHg 74%
    21:00 +14°C° 0 mm 12 m/S 760 mmHg 72%
    22:00 +13°C° 0 mm 12 m/S 760 mmHg 71%
    23:00 +13°C° 0 mm 12 m/S 761 mmHg 69%

    24 März, Sonntag

    Zeit Temperatur Niederschläge Wind Luftdruck Luftfeuchtigkeit
    00:00 +13°C° 0 mm 11 m/S 761 mmHg 70%
    01:00 +13°C° 0 mm 10 m/S 762 mmHg 71%
    02:00 +12°C° 0 mm 10 m/S 762 mmHg 71%
    03:00 +12°C° 0 mm 10 m/S 762 mmHg 71%
    04:00 +12°C° 0 mm 10 m/S 762 mmHg 71%
    05:00 +12°C° 0 mm 10 m/S 762 mmHg 70%
    06:00 +12°C° 0 mm 9 m/S 763 mmHg 70%
    07:00 +12°C° 0 mm 9 m/S 763 mmHg 70%
    08:00 +12°C° 0 mm 9 m/S 763 mmHg 69%
    09:00 +13°C° 0 mm 9 m/S 763 mmHg 67%
    10:00 +13°C° 0 mm 9 m/S 763 mmHg 66%
    11:00 +13°C° 0 mm 9 m/S 763 mmHg 64%
    12:00 +15°C° 0 mm 9 m/S 763 mmHg 63%
    13:00 +15°C° 0 mm 9 m/S 762 mmHg 61%
    14:00 +15°C° 0 mm 9 m/S 762 mmHg 60%
    15:00 +15°C° 0 mm 9 m/S 762 mmHg 62%
    16:00 +15°C° 0 mm 9 m/S 762 mmHg 63%
    17:00 +15°C° 0 mm 9 m/S 762 mmHg 65%
    18:00 +13°C° 0 mm 9 m/S 762 mmHg 68%
    19:00 +12°C° 0 mm 8 m/S 763 mmHg 71%
    20:00 +12°C° 0 mm 8 m/S 763 mmHg 73%
    21:00 +12°C° 0 mm 7 m/S 763 mmHg 75%
    22:00 +12°C° 0 mm 7 m/S 763 mmHg 76%
    23:00 +13°C° 0 mm 6 m/S 763 mmHg 78%

    25 März, Montag

    Zeit Temperatur Niederschläge Wind Luftdruck Luftfeuchtigkeit
    00:00 +11°C° 0 mm 6 m/S 763 mmHg 79%
    01:00 +11°C° 0 mm 6 m/S 763 mmHg 80%
    02:00 +12°C° 0 mm 5 m/S 763 mmHg 81%
    03:00 +12°C° 0 mm 5 m/S 763 mmHg 82%
    04:00 +12°C° 0 mm 5 m/S 763 mmHg 82%
    05:00 +12°C° 0 mm 5 m/S 763 mmHg 83%
    06:00 +12°C° 0 mm 5 m/S 764 mmHg 81%
    07:00 +11°C° 0 mm 6 m/S 764 mmHg 78%
    08:00 +13°C° 0 mm 6 m/S 764 mmHg 76%
    09:00 +13°C° 0 mm 6 m/S 765 mmHg 71%
    10:00 +14°C° 0 mm 6 m/S 765 mmHg 66%
    11:00 +15°C° 0 mm 6 m/S 765 mmHg 61%
    12:00 +15°C° 0 mm 7 m/S 765 mmHg 59%
    13:00 +16°C° 0 mm 7 m/S 765 mmHg 58%
    14:00 +16°C° 0 mm 7 m/S 765 mmHg 56%
    15:00 +15°C° 0 mm 7 m/S 766 mmHg 59%
    16:00 +15°C° 0 mm 8 m/S 766 mmHg 63%
    17:00 +13°C° 0 mm 8 m/S 766 mmHg 66%
    18:00 +13°C° 0 mm 8 m/S 767 mmHg 68%
    19:00 +12°C° 0 mm 8 m/S 768 mmHg 71%
    20:00 +12°C° 0 mm 7 m/S 768 mmHg 73%
    21:00 +12°C° 0 mm 7 m/S 769 mmHg 73%
    22:00 +11°C° 0 mm 6 m/S 769 mmHg 73%
    23:00 +11°C° 0 mm 6 m/S 769 mmHg 72%

    26 März, Dienstag

    Zeit Temperatur Niederschläge Wind Luftdruck Luftfeuchtigkeit
    00:00 +12°C° 0 mm 5 m/S 770 mmHg 74%
    01:00 +12°C° 0 mm 4 m/S 770 mmHg 75%
    02:00 +12°C° 0 mm 3 m/S 770 mmHg 77%
    03:00 +12°C° 0 mm 3 m/S 770 mmHg 77%
    04:00 +12°C° 0 mm 3 m/S 770 mmHg 78%
    05:00 +12°C° 0 mm 3 m/S 770 mmHg 78%
    06:00 +12°C° 0 mm 3 m/S 771 mmHg 75%
    07:00 +14°C° 0 mm 2 m/S 771 mmHg 73%
    08:00 +14°C° 0 mm 2 m/S 771 mmHg 70%
    09:00 +15°C° 0 mm 2 m/S 771 mmHg 66%
    10:00 +16°C° 0 mm 3 m/S 772 mmHg 61%
    11:00 +17°C° 0 mm 3 m/S 772 mmHg 56%
    12:00 +17°C° 0 mm 3 m/S 771 mmHg 53%
    13:00 +18°C° 0 mm 4 m/S 771 mmHg 50%
    14:00 +19°C° 0 mm 4 m/S 770 mmHg 47%
    15:00 +19°C° 0 mm 5 m/S 770 mmHg 47%
    16:00 +19°C° 0 mm 6 m/S 770 mmHg 47%
    17:00 +17°C° 0 mm 6 m/S 769 mmHg 47%
    18:00 +17°C° 0 mm 6 m/S 769 mmHg 51%
    19:00 +16°C° 0 mm 7 m/S 769 mmHg 55%
    20:00 +16°C° 0 mm 7 m/S 769 mmHg 59%
    21:00 +15°C° 0 mm 7 m/S 769 mmHg 62%
    22:00 +15°C° 0 mm 7 m/S 769 mmHg 65%
    23:00 +14°C° 0 mm 7 m/S 769 mmHg 67%
    Mehr zeigen